Regional Weather Roundup
Issued by NWS Huntsville, AL

Home | Current Version | Previous Version | Text Only | Print | Product List | Glossary On
Versions: 1 2 3 4 5 6 7 8 9 10 11 12 13 14 15 16 17 18 19 20 21 22 23 24 25 26 27 28
000
ASUS44 KHUN 281910
RWRHUN

WEATHER ROUNDUP FOR THE TENNESSEE VALLEY
NATIONAL WEATHER SERVICE HUNTSVILLE AL
200 PM CDT SAT MAY 28 2016

ALZ001>004-282000-
NORTHWEST ALABAMA

CITY           SKY/WX    TMP DP  RH WIND       PRES   REMARKS
COURTLAND HCN    N/A     82 N/A N/A S10         N/A
RUSSELLVILLE     N/A     82 N/A N/A MISG        N/A
SHOALS AIRPORT MOSUNNY   85  62  46 S10G22    30.08R
SHOALS TVA RES   N/A     86 N/A N/A MISG        N/A
$$

ALZ005>007-016-282000-
NORTH CENTRAL ALABAMA

CITY           SKY/WX    TMP DP  RH WIND       PRES   REMARKS
CULLMAN AG STN   N/A     75 N/A N/A SE3         N/A
DECATUR AP     CLOUDY    79  64  60 S10       30.10F
HUNTSVILLE AP  PTSUNNY   81  59  47 SE10      30.10F
HUN NWS/UAH      N/A     78  62  58 SE5         N/A
MERIDIANVILLE  CLOUDY    73  61  64 CALM      30.12S
REDSTONE ARSN  CLOUDY    77  65  64 S5        30.10F
VINEMONT AP    FAIR      76  63  62 S8        30.15R
$$

ALZ008>010-282000-
NORTHEAST ALABAMA

CITY           SKY/WX    TMP DP  RH WIND       PRES   REMARKS
ALBERTVILLE    PTSUNNY   79  68  69 W3        30.11S
FORT PAYNE     MOSUNNY   82  52  34 SE6       30.10S
SCOTTSBORO AP  MOSUNNY   81  66  61 NW5       30.10F
SCOTTSBORO HCN   N/A     81 N/A N/A MISG        N/A
VALLEY HEAD      N/A     84 N/A N/A MISG        N/A
$$

TNZ076-096-097-282000-
SOUTHEASTERN MIDDLE TENNESSEE

CITY           SKY/WX    TMP DP  RH WIND       PRES   REMARKS
TULLAHOMA      PTSUNNY   73  72  94 SW3       30.14S
WINCHESTER     SUNNY     77  64  65 SW3       30.12S
$$

...SURROUNDING SITES...

CITY           SKY/WX    TMP DP  RH WIND       PRES   REMARKS
ATLANTA        MOSUNNY   85  51  31 E10G17    30.11F
ANNISTON       PTSUNNY   86  60  41 VRB5      30.09S
BIRMINGHAM     CLOUDY    78  64  61 CALM      30.13F
CHATTANOOGA    PTSUNNY   87  56  34 E9        30.10F
DALTON         MOSUNNY   84  55  37 CALM      30.11F
GADSDEN        CLOUDY    85  63  47 E6        30.09F
GOLDEN TRNGL   NOT AVBL
HALEYVILLE     PTSUNNY   83  64  52 S12G20    30.11F
JACKSON TN     MOSUNNY   85  68  56 SW9       30.03S
MEMPHIS        PTSUNNY   84  67  56 S10       30.01F
NASHVILLE      CLOUDY    80  63  55 S10       30.09S
OXFORD MS      FAIR      84  64  51 S6        30.04S
ROME           MOSUNNY   86  54  33 SE8G20    30.10F
SAVANNAH       MOSUNNY   88  63  42 S14G20    30.03S
TUPELO         MOSUNNY   86  61  42 SE12      30.03F
TUSCALOOSA     MOSUNNY   84  64  50 MISG      30.07F
$$

...GULF COAST WEATHER...

CITY           SKY/WX    TMP DP  RH WIND       PRES   REMARKS
GULFPORT       CLOUDY    83  65  54 SE12      30.04F
PASCAGOULA     CLOUDY    83  66  56 SE5       30.06S
MOBILE         CLOUDY    83  64  52 S6        30.07R
GULF SHORES    CLOUDY    81  67  62 SE14G23   30.05F
PENSACOLA      PTSUNNY   83  68  60 SE7       30.05S
DESTIN         PTSUNNY   84  75  74 S8        30.05S HX  92
PANAMA CITY    DRIZZLE   80  73  80 S15       30.04S
APPALACHICOLA  SUNNY     84  74  71 S15       30.04F HX  91
$$





USA.gov is the U.S. government's official web portal to all federal, state and local government web resources and services.